www.pogodaiklimat.ru

Погода и климат >> Архив погоды >> Пакистан >> Ханевал


ПОГОДА в Ханевале

  • Прогноз погоды в Ханевале
  • Монитор погоды в Ханевале

АРХИВ ПОГОДЫ в Ханевале

Время (UTC), дата Ветер
(напр.,м/с)
 
Видим.   Явления Облачность Т
(С)
Тd
(С)
f
(%)
Тe
(С)
Тes
(С)
Комфортность P
(гПа)
Po
(гПа)
Тmin
(С)
Tmax
(С)
R
(мм)
R24
(мм)
S
(см)
15 9.07 штиль 0 4000 м дым ясно +36.0 +27.2 61 +55 +55 опасность
перегрева
989.4 975.1
18 9.07 штиль 0 4000 м дым ясно +34.0 +27.2 68 +53 +53 опасность
перегрева
990.1 973.7
21 9.07 штиль 0 4000 м дым ясно +32.0 +26.5 73 +49 +49 опасность
перегрева
989.6 975.1
00 10.07 штиль 0 4000 м дым ясно +30.5 +26.4 79 +47 +47 опасность
перегрева
989.9 973.5
03 10.07 ЮЗ 2 4000 м дым ясно +33.0 +26.1 67 +49 +56 опасность
перегрева
990.9 974.5 +30.0
06 10.07 ЮЗ 3 4000 м дым ясно +35.0 +26.1 60 +51 +67 опасность
перегрева
992.6 976.2
09 10.07 ЮЗ 2 4000 м дым 4/0
[Ac As]
+37.0 +26.0 53 +52 +65 опасность
перегрева
991.9 977.6
12 10.07 ЮЗ 1 4000 м дым ясно +38.5 +27.0 52 +56 +61 опасность
перегрева
989.8 973.4 +39.2
15 10.07 штиль 0 4000 м дым ясно +35.0 +26.8 63 +53 +53 опасность
перегрева
989.6 975.2
18 10.07 штиль 0 4000 м дым ясно +32.0 +27.2 76 +50 +50 опасность
перегрева
990.3 973.9
21 10.07 штиль 0 4000 м дым ясно +30.5 +27.1 82 +48 +48 опасность
перегрева
990.1 975.5
00 11.07 штиль 0 4000 м дым ясно +29.0 +26.2 85 +44 +44 опасность
перегрева
990.2 973.8
03 11.07 ЮЗ 2 4000 м дым ясно +31.5 +25.2 69 +45 +52 опасность
перегрева
991.3 974.8 +28.5
06 11.07 СЗ 2 4000 м дым 3/0
[]
+34.5 +25.5 60 +49 +66 опасность
перегрева
992.3 975.9
09 11.07 штиль 0 50 км дым ?/? +38.0 +26.4 52 +54 +54 опасность
перегрева
991.7 977.4
12 11.07 ЮЗ 1 4000 м мгла ясно +39.0 +25.2 46 +52 +57 опасность
перегрева
990.4 974.0 +40.2
15 11.07 штиль 0 4000 м дым ясно +35.5 +26.6 60 +52 +52 опасность
перегрева
990.2 975.8
18 11.07 штиль 0 4000 м дым ясно +33.0 +26.8 70 +51 +51 опасность
перегрева
992.1 975.7
00 12.07 З 1 4000 м дым ясно +30.5 +27.1 82 +48 +48 опасность
перегрева
992.8 976.4
03 12.07 ЮЗ 3 2000 м пыль ясно +31.0 +23.9 66 +43 +48 опасность
перегрева
993.9 977.5 +30.0
06 12.07 ЮЗ 1 2000 м пыль 6/0
[Ac trans]
+33.0 +24.6 61 +46 +61 опасность
перегрева
995.3 978.9
09 12.07 штиль 0 50 км дым ?/? +36.5 +26.2 56 +53 +53 опасность
перегрева
994.6 980.2
12 12.07 ЮЗ 1 4000 м дым ясно +38.5 +26.4 50 +54 +59 опасность
перегрева
993.0 976.6 +38.5
15 12.07 штиль 0 4000 м дым ясно +34.0 +28.6 74 +57 +57 опасность
перегрева
993.1 978.6
18 12.07 штиль 0 4000 м дым ясно +32.0 +27.9 79 +52 +52 опасность
перегрева
994.1 977.7
21 12.07 штиль 0 4000 м дым ясно +31.0 +27.6 82 +50 +50 опасность
перегрева
993.4 978.8
00 13.07 штиль 0 4000 м дым ясно +30.0 +26.5 82 +46 +46 опасность
перегрева
994.0 977.6
03 13.07 ЮЗ 1 4000 м дым 3/0
[Ac trans]
+31.5 +24.4 66 +44 +50 опасность
перегрева
996.2 979.8 +29.5
06 13.07 Ю 2 4000 м дым 5/0
[Ac trans]
+33.5 +24.4 59 +46 +60 опасность
перегрева
995.7 979.3
21 13.07 штиль 0 4000 м дым 5/0
[Ac trans]
+31.0 +26.9 79 +48 +48 опасность
перегрева
992.9 978.3
00 14.07 штиль 0 4000 м дым 5/0
[Ac trans]
+30.0 +26.5 82 +46 +46 опасность
перегрева
993.5 977.1
03 14.07 ЮЗ 3 4000 м дым 4/0
[Ac trans]
+31.0 +23.9 66 +43 +47 опасность
перегрева
994.8 978.4 +23.9
06 14.07 ЮЗ 2 4000 м дым 4/0
[Ac trans]
+34.0 +24.9 59 +47 +62 опасность
перегрева
994.5 978.1
09 14.07 ЮЗ 1 4000 м дым 8/0
[Ac As]
+37.0 +26.0 53 +52 +61 опасность
перегрева
993.5 979.2
12 14.07 штиль 0 4000 м дым 5/0
[Ac As]
+38.0 +26.4 52 +54 +58 опасность
перегрева
991.2 974.8 +38.5
18 14.07 штиль 0 4000 м дым 5/0
[Ac trans]
+33.5 +27.4 71 +53 +53 опасность
перегрева
991.8 975.3
00 15.07 штиль 0 4000 м дым 5/0
[Ac trans]
+30.5 +26.4 79 +47 +47 опасность
перегрева
991.4 975.0
03 15.07 ЮЗ 3 4000 м дым 8/0
[Ac trans]
+31.0 +24.6 69 +44 +47 опасность
перегрева
992.5 976.1 +30.0
06 15.07 ЮЗ 2 4000 м пыль 8/0
[Ac As]
+33.0 +24.6 61 +46 +54 опасность
перегрева
993.0 976.6
09 15.07 штиль 0 4000 м дым 5/0
[Ac trans]
+36.0 +26.4 58 +53 +70 опасность
перегрева
991.8 977.4
12 15.07 штиль 0 4000 м дым 5/0
[Ac trans]
+37.0 +27.6 59 +56 +60 опасность
перегрева
991.8 975.4 +38.0
15 15.07 штиль 0 4000 м дым 8/0
[Ac As]
+35.0 +26.8 63 +53 +53 опасность
перегрева
991.1 976.7
18 15.07 штиль 0 4000 м дым 8/0
[Ac As]
+33.0 +26.1 67 +49 +49 опасность
перегрева
992.6 976.2
21 15.07 штиль 0 4000 м дым 8/0
[Ac As]
+32.0 +25.8 70 +47 +47 опасность
перегрева
992.3 977.7
00 16.07 штиль 0 4000 м дым 8/0
[Ac As]
+30.0 +25.8 78 +45 +45 опасность
перегрева
992.2 975.8
03 16.07 Ю 2 4000 м дым 8/0
[Ac trans]
+31.0 +25.4 72 +45 +49 опасность
перегрева
993.7 977.3 +29.0
06 16.07 Ю 2 4000 м дым 3/0
[Ac trans]
+35.0 +25.3 57 +49 +65 опасность
перегрева
995.5 979.1
09 16.07 Ю 3 4000 м дым 8/8 1200 м
[Sc Ac trans]
+36.0 +24.9 53 +49 +52 опасность
перегрева
995.5 981.1

 

Местоположение метеостанции Ханевал (Пакистан): широта 30.30 долгота 71.90 высота над уровнем моря 132 м.

В архиве по умолчанию представлена погода в Ханевале за последнюю неделю. Архивные данные за месяц целиком и за предыдущие месяцы, начиная с января 2011 года, Вы можете получить, выбрав интересующий диапазон дат из раскрывающегося списка и нажав кнопку "Ввод!".


*Определитесь, кто Вы:
робот инопланетянин человек

Внимание! Время в таблицах - всемирное. Для получения местного времени необходимо прибавить поправку, которая равна 5 ч.

Смотрите также архив погоды в соседних городах и на ближайших метеорологических станциях:

Погода в Мултане (Пакистан) (47 км)
Погода на Авиабазе Raifiqui (Пакистан) (61 км)
Погода в Кот Адду (Пакистан) (93 км)
Погода в Тоба Тек Сингх (Пакистан) (93 км)
Погода в Бахавалпуре (Пакистан) (101 км)
Погода а Бахавалпур аэропорту (Пакистан) (101 км)
Погода в Сахивале (Пакистан) (115 км)
Погода в Джанге (Пакистан) (115 км)
Погода в Леяхе (Пакистан) (120 км)
Погода в Дера Гази Хан (Пакистан) (125 км)

Пояснения к столбцам:

Ветер - указаны скорость ветра в м/с - средняя за 10 мин, порывы в срок и между сроками (в фигурных скобках) и направление, откуда дует ветер: С - северный, СВ - северо-восточный, В - восточный, ЮВ - юго-восточный, Ю - южный, ЮЗ - юго-западный, З - западный, СЗ - северо-западный.
Видимость - горизонтальная дальность видимости в метрах или километрах. При видимости от 1 до 10 км при отсутствии осадков обычно наблюдается дымка, при ухудшении видимости до 1 км и менее - туман. В сухую погоду видимость может ухудшаться дымом, пылью или мглою.
Явления - указаны атмосферные явления, наблюдавшиеся в срок или в последний час перед сроком; фигурными скобками обозначены явления, наблюдавшиеся между сроками (за 1-3 часа до срока); квадратными скобками обозначены град или гололедные отложения с указанием их диаметра в мм.
Облачность - указаны через наклонную черту общая и нижняя облачность в баллах и высота нижней границы облаков в метрах; квадратными скобками обозначены формы облаков: Ci - перистые, Cs - перисто-слоистые, Cc - перисто-кучевые, Ac - высококучевые, As - высокослоистые, Sc - слоисто-кучевые, Ns - слоисто-дождевые, Cu - кучевые, Cb - кучево-дождевые. Подробнее классификацию облаков см. в Атласе облаков (PDF).
T - Температура воздуха - температура, измеренная на высоте 2 м над землей.
Td - Температура точки росы - температура, при понижении до которой содержащийся в воздухе водяной пар достигнет насыщения.
f - Относительная влажность воздуха - влажноcть воздуха, измеренная на высоте 2 м над землей.
Te - Эффективная температура - температура, которую ощущает одетый по сезону человек в тени. Характеристика душности погоды. При расчете учитывается влияние влажности воздуха и скорости ветра на теплоощущения человека.
Tes - Эффективная температура на солнце - температура, которую ощущает человек, с поправкой на солнечный нагрев. Характеристика знойности погоды. Зависит от высоты солнца над горизонтом, облачности и скорости ветра. Ночью, в пасмурную погоду, а также при ветре 12 м/с и более поправка равна нулю.
P - Атмосферное давление - приведенное к уровню моря атмосферное давление.
Po - Атмосферное давление - измеренное на уровне метеостанции атмосферное давление.
Tmin - Минимальная температура - минимум температуры воздуха на высоте 2 м над землей.
Tmax - Максимальная температура - максимум температуры воздуха на высоте 2 м над землей.
R - Количество осадков - Количество выпавших осадков за период времени, мм. При наведении курсора мыши на число - период времени, за который выпало указанное количество осадков.
R24 - Количество осадков - Количество выпавших осадков за 24 часа, мм.
S - Снежный покров - Высота снежного покрова, см. При наведении курсора мыши на число - состояние снежного покрова и степень покрытия местности в баллах.